When you browse on this site, cookies collect data to enhance your experience and personalize the content and advertising you see.
Visit our Privacy Policy to learn more. By continuing to use the site, you agree to this use of cookies and data.
  • In Czech Republic
  • List of Countries
  • For 7 days
  • Water Temperature
  • Satellite Maps
  • Weather Map
  • Weather Widgets
  • user-avatar
    Login

    Hourly Weather Novye Maksimovichi

    Today, 20 July, Saturday

    Time Temperature Precipitation Wind Pressure Humidity
    00:00 +14°C° 0 mm 2 mps 746 mmHg 91%
    01:00 +14°C° 0 mm 2 mps 746 mmHg 91%
    02:00 +13°C° 0 mm 2 mps 746 mmHg 90%
    03:00 +13°C° 0 mm 2 mps 747 mmHg 90%
    04:00 +13°C° 0 mm 2 mps 747 mmHg 89%
    05:00 +13°C° 0 mm 1 mps 747 mmHg 89%
    06:00 +15°C° 0 mm 2 mps 747 mmHg 83%
    07:00 +17°C° 0 mm 2 mps 747 mmHg 77%
    08:00 +20°C° 0 mm 2 mps 747 mmHg 70%
    09:00 +21°C° 0 mm 2 mps 747 mmHg 65%
    10:00 +22°C° 0 mm 3 mps 748 mmHg 61%
    11:00 +25°C° 0 mm 3 mps 748 mmHg 56%
    12:00 +25°C° 0 mm 3 mps 748 mmHg 54%
    13:00 +26°C° 0 mm 3 mps 748 mmHg 53%
    14:00 +26°C° 0 mm 3 mps 748 mmHg 52%
    15:00 +26°C° 0 mm 3 mps 748 mmHg 54%
    16:00 +26°C° 0 mm 3 mps 748 mmHg 56%
    17:00 +26°C° 0 mm 2 mps 748 mmHg 58%
    18:00 +24°C° 0.1 mm 2 mps 748 mmHg 66%
    19:00 +21°C° 0.1 mm 2 mps 748 mmHg 74%
    20:00 +20°C° 0.1 mm 1 mps 748 mmHg 83%
    21:00 +19°C° 0 mm 1 mps 748 mmHg 84%
    22:00 +18°C° 0 mm 1 mps 748 mmHg 86%
    23:00 +15°C° 0 mm 0 mps 748 mmHg 87%

    Tomorrow, 21 July, Sunday

    Time Temperature Precipitation Wind Pressure Humidity
    00:00 +15°C° 0 mm 0 mps 748 mmHg 88%
    01:00 +15°C° 0 mm 0 mps 748 mmHg 89%
    02:00 +14°C° 0 mm 0 mps 749 mmHg 89%
    03:00 +14°C° 0 mm 0 mps 748 mmHg 90%
    04:00 +14°C° 0 mm 0 mps 748 mmHg 90%
    05:00 +14°C° 0 mm 0 mps 748 mmHg 90%
    06:00 +17°C° 0 mm 0 mps 748 mmHg 84%
    07:00 +19°C° 0 mm 0 mps 749 mmHg 79%
    08:00 +21°C° 0 mm 0 mps 749 mmHg 73%
    09:00 +22°C° 0 mm 0 mps 749 mmHg 67%
    10:00 +24°C° 0 mm 0 mps 749 mmHg 62%
    11:00 +25°C° 0 mm 0 mps 749 mmHg 56%
    12:00 +27°C° 0.1 mm 1 mps 749 mmHg 54%
    13:00 +28°C° 0.1 mm 1 mps 749 mmHg 52%
    14:00 +28°C° 0.1 mm 1 mps 748 mmHg 50%
    15:00 +27°C° 0.6 mm 1 mps 748 mmHg 56%
    16:00 +27°C° 0.6 mm 1 mps 748 mmHg 63%
    17:00 +26°C° 0.6 mm 1 mps 748 mmHg 69%
    18:00 +24°C° 0.5 mm 1 mps 748 mmHg 74%
    19:00 +23°C° 0.5 mm 1 mps 748 mmHg 79%
    20:00 +21°C° 0.5 mm 1 mps 748 mmHg 84%
    21:00 +20°C° 0 mm 1 mps 748 mmHg 86%
    22:00 +20°C° 0 mm 1 mps 748 mmHg 88%
    23:00 +19°C° 0 mm 1 mps 748 mmHg 90%

    Day after tomorrow, 22 July, Monday

    Time Temperature Precipitation Wind Pressure Humidity
    00:00 +17°C° 0.1 mm 2 mps 747 mmHg 91%
    01:00 +17°C° 0.1 mm 2 mps 747 mmHg 92%
    02:00 +16°C° 0.1 mm 2 mps 747 mmHg 94%
    03:00 +17°C° 0 mm 2 mps 747 mmHg 94%
    04:00 +17°C° 0 mm 2 mps 747 mmHg 94%
    05:00 +17°C° 0 mm 2 mps 747 mmHg 95%
    06:00 +18°C° 0.2 mm 2 mps 746 mmHg 92%
    07:00 +19°C° 0.2 mm 2 mps 746 mmHg 89%
    08:00 +20°C° 0.2 mm 2 mps 746 mmHg 86%
    09:00 +21°C° 1.2 mm 3 mps 746 mmHg 85%
    10:00 +21°C° 1.2 mm 3 mps 746 mmHg 84%
    11:00 +22°C° 1.2 mm 3 mps 746 mmHg 83%
    12:00 +21°C° 0.9 mm 3 mps 746 mmHg 87%
    13:00 +20°C° 0.9 mm 2 mps 746 mmHg 90%
    14:00 +20°C° 0.9 mm 1 mps 746 mmHg 94%
    15:00 +20°C° 0.3 mm 1 mps 746 mmHg 92%
    16:00 +20°C° 0.3 mm 1 mps 746 mmHg 91%
    17:00 +20°C° 0.3 mm 1 mps 746 mmHg 89%
    18:00 +20°C° 0 mm 1 mps 746 mmHg 91%
    19:00 +19°C° 0 mm 1 mps 745 mmHg 93%
    20:00 +16°C° 0 mm 0 mps 745 mmHg 94%
    21:00 +18°C° 0 mm 1 mps 745 mmHg 95%
    22:00 +18°C° 0 mm 1 mps 745 mmHg 96%
    23:00 +16°C° 0 mm 2 mps 745 mmHg 96%

    23 July, Tuesday

    Time Temperature Precipitation Wind Pressure Humidity
    00:00 +16°C° 0 mm 2 mps 745 mmHg 96%
    01:00 +16°C° 0 mm 2 mps 745 mmHg 96%
    02:00 +16°C° 0 mm 3 mps 745 mmHg 97%
    03:00 +16°C° 0 mm 2 mps 745 mmHg 96%
    04:00 +16°C° 0 mm 2 mps 745 mmHg 96%
    05:00 +16°C° 0 mm 2 mps 745 mmHg 96%
    06:00 +17°C° 0.1 mm 2 mps 745 mmHg 95%
    07:00 +17°C° 0.1 mm 2 mps 745 mmHg 94%
    08:00 +18°C° 0.1 mm 2 mps 745 mmHg 92%
    09:00 +19°C° 0.4 mm 2 mps 745 mmHg 91%
    10:00 +19°C° 0.4 mm 2 mps 745 mmHg 90%
    11:00 +19°C° 0.4 mm 2 mps 745 mmHg 89%
    12:00 +20°C° 0.4 mm 2 mps 745 mmHg 85%
    13:00 +21°C° 0.4 mm 2 mps 745 mmHg 82%
    14:00 +23°C° 0.4 mm 2 mps 745 mmHg 78%
    15:00 +23°C° 0.8 mm 2 mps 745 mmHg 78%
    16:00 +23°C° 0.8 mm 2 mps 745 mmHg 79%
    17:00 +23°C° 0.8 mm 2 mps 745 mmHg 79%
    18:00 +21°C° 0.2 mm 2 mps 745 mmHg 84%
    19:00 +20°C° 0.2 mm 2 mps 745 mmHg 89%
    20:00 +19°C° 0.2 mm 2 mps 745 mmHg 94%
    21:00 +18°C° 0 mm 2 mps 745 mmHg 95%
    22:00 +18°C° 0 mm 2 mps 746 mmHg 95%
    23:00 +17°C° 0 mm 2 mps 746 mmHg 96%

    24 July, Wednesday

    Time Temperature Precipitation Wind Pressure Humidity
    00:00 +17°C° 0 mm 2 mps 746 mmHg 96%
    01:00 +17°C° 0 mm 2 mps 746 mmHg 96%
    02:00 +17°C° 0 mm 2 mps 746 mmHg 95%
    03:00 +16°C° 0 mm 2 mps 746 mmHg 96%
    04:00 +16°C° 0 mm 2 mps 746 mmHg 96%
    05:00 +16°C° 0 mm 2 mps 746 mmHg 96%
    06:00 +17°C° 0 mm 2 mps 747 mmHg 91%
    07:00 +19°C° 0 mm 2 mps 747 mmHg 87%
    08:00 +20°C° 0 mm 3 mps 747 mmHg 83%
    09:00 +22°C° 0 mm 3 mps 747 mmHg 74%
    10:00 +25°C° 0 mm 3 mps 747 mmHg 66%
    11:00 +26°C° 0 mm 3 mps 747 mmHg 57%
    12:00 +27°C° 0 mm 4 mps 747 mmHg 56%
    13:00 +27°C° 0 mm 4 mps 747 mmHg 55%
    14:00 +28°C° 0 mm 4 mps 747 mmHg 53%
    15:00 +27°C° 0.1 mm 3 mps 747 mmHg 57%
    16:00 +27°C° 0.1 mm 3 mps 747 mmHg 60%
    17:00 +27°C° 0.1 mm 3 mps 747 mmHg 64%
    18:00 +25°C° 0.1 mm 3 mps 747 mmHg 70%
    19:00 +23°C° 0.1 mm 2 mps 747 mmHg 77%
    20:00 +21°C° 0.1 mm 2 mps 747 mmHg 83%
    21:00 +20°C° 0 mm 2 mps 747 mmHg 85%
    22:00 +19°C° 0 mm 2 mps 748 mmHg 88%
    23:00 +18°C° 0 mm 2 mps 748 mmHg 90%

    25 July, Thursday

    Time Temperature Precipitation Wind Pressure Humidity
    00:00 +18°C° 0 mm 2 mps 748 mmHg 91%
    01:00 +17°C° 0 mm 2 mps 748 mmHg 92%
    02:00 +17°C° 0 mm 2 mps 748 mmHg 94%
    03:00 +17°C° 0 mm 2 mps 748 mmHg 94%
    04:00 +17°C° 0 mm 2 mps 748 mmHg 94%
    05:00 +17°C° 0 mm 2 mps 748 mmHg 94%
    06:00 +19°C° 0 mm 2 mps 748 mmHg 88%
    07:00 +20°C° 0 mm 2 mps 748 mmHg 83%
    08:00 +23°C° 0 mm 2 mps 748 mmHg 77%
    09:00 +25°C° 0 mm 2 mps 749 mmHg 71%
    10:00 +26°C° 0 mm 2 mps 749 mmHg 64%
    11:00 +28°C° 0 mm 2 mps 749 mmHg 58%
    12:00 +28°C° 0 mm 2 mps 749 mmHg 57%
    13:00 +29°C° 0 mm 2 mps 748 mmHg 55%
    14:00 +29°C° 0 mm 2 mps 748 mmHg 54%
    15:00 +28°C° 0.2 mm 3 mps 748 mmHg 61%
    16:00 +27°C° 0.2 mm 3 mps 748 mmHg 67%
    17:00 +26°C° 0.2 mm 3 mps 748 mmHg 74%
    18:00 +25°C° 0.1 mm 3 mps 748 mmHg 79%
    19:00 +24°C° 0.1 mm 2 mps 748 mmHg 85%
    20:00 +21°C° 0.1 mm 2 mps 749 mmHg 90%
    21:00 +21°C° 0 mm 2 mps 749 mmHg 92%
    22:00 +20°C° 0 mm 2 mps 749 mmHg 94%
    23:00 +19°C° 0 mm 2 mps 749 mmHg 96%
    Show more